Kosmos-2012

operational
NORAD ID: 19906 Int'l Des: 1989-025 Owner: UNKS Country: SU
LEOCIRCULAR

Kosmos-2012について

説明を読み込み中...

リアルタイム位置

3D地球を読み込み中...

次回通過

高度履歴

Altitude vs Time

uPlot chart will show altitude changes over time

軌道要素

1 19906U 89025E 26062.17621102 .00000003 00000-0 12567-3 0 9992
2 19906 74.0072 78.3967 0009946 16.0532 50.6380 12.50244766686023
Epoch: Mar 3, 2026 • Age: 18 hours

現在のステータス

高度 1472.6 km
速度 7.13 km/s
衛星直下点 35.82°N, 173.09°E
打ち上げ日 Mar 24, 1989
運用期間 36.9 years
タイプ other

技術仕様

分類 Payload
質量 60.00 kg
乾燥質量 60.00 kg
総質量 60.00 kg
長さ 0.80 m
直径 0.80 m
スパン 0.80 m
形状 Poly
製造者 NPOPM
バスタイプ Strela-1 11F625
フェーズステータス In Orbit
所有者/国 UNKS/SU

大規模コンステレーション

Loading constellations...